Time,TemperatureF,DewpointF,PressureIn,WindDirection,WindDirectionDegrees,WindSpeedMPH,WindSpeedGustMPH,Humidity,HourlyPrecipIn,Conditions,Clouds,dailyrainin,SoftwareType,DateUTC
2013-02-03 00:02:00,41.0,17.0,-100.00,ESE,114,8.0,10.0,37,-99.99,,,-99.99,,2013-02-03 06:02:00,
2013-02-03 00:11:00,41.0,17.0,-100.00,ESE,122,9.0,10.0,38,-99.99,,,-99.99,,2013-02-03 06:11:00,
2013-02-03 00:21:00,41.0,18.0,-100.00,SE,126,10.0,11.0,39,-99.99,,,-99.99,,2013-02-03 06:21:00,
2013-02-03 00:32:00,41.0,17.0,-100.00,ESE,117,10.0,11.0,38,-99.99,,,-99.99,,2013-02-03 06:32:00,
2013-02-03 00:41:00,41.0,19.0,-100.00,ESE,121,11.0,12.0,40,-99.99,,,-99.99,,2013-02-03 06:41:00,
2013-02-03 00:52:00,41.0,20.0,-100.00,SE,130,10.0,11.0,42,-99.99,,,-99.99,,2013-02-03 06:52:00,
2013-02-03 01:01:00,41.0,20.0,-100.00,SE,134,10.0,11.0,42,-99.99,,,-99.99,,2013-02-03 07:01:00,
2013-02-03 01:11:00,41.0,19.0,-100.00,ESE,115,9.0,10.0,41,-99.99,,,-99.99,,2013-02-03 07:11:00,
2013-02-03 01:21:00,41.0,19.0,-100.00,ESE,122,10.0,11.0,40,-99.99,,,-99.99,,2013-02-03 07:21:00,
2013-02-03 01:31:00,41.0,17.0,-100.00,SE,125,8.0,9.0,38,-99.99,,,-99.99,,2013-02-03 07:31:00,
2013-02-03 01:42:00,43.0,16.0,-100.00,SE,130,8.0,9.0,34,-99.99,,,-99.99,,2013-02-03 07:42:00,
2013-02-03 01:52:00,43.0,16.0,-100.00,SE,143,7.0,9.0,34,-99.99,,,-99.99,,2013-02-03 07:52:00,
2013-02-03 02:01:00,43.0,12.0,-100.00,SE,142,8.0,10.0,28,-99.99,,,-99.99,,2013-02-03 08:01:00,
2013-02-03 02:11:00,45.0,11.0,-100.00,SSE,147,9.0,11.0,25,-99.99,,,-99.99,,2013-02-03 08:11:00,
2013-02-03 02:22:00,43.0,11.0,-100.00,SSE,159,9.0,12.0,27,-99.99,,,-99.99,,2013-02-03 08:22:00,
2013-02-03 02:32:00,45.0,11.0,-100.00,SSE,156,10.0,11.0,25,-99.99,,,-99.99,,2013-02-03 08:32:00,
2013-02-03 02:52:00,43.0,11.0,-100.00,SSE,150,9.0,11.0,27,-99.99,,,-99.99,,2013-02-03 08:52:00,
2013-02-03 03:02:00,43.0,11.0,-100.00,SSE,156,10.0,11.0,27,-99.99,,,-99.99,,2013-02-03 09:02:00,
2013-02-03 03:11:00,43.0,14.0,-100.00,SSE,159,9.0,10.0,30,-99.99,,,-99.99,,2013-02-03 09:11:00,
2013-02-03 03:21:00,43.0,12.0,-100.00,SSE,157,10.0,12.0,28,-99.99,,,-99.99,,2013-02-03 09:21:00,
2013-02-03 03:31:00,43.0,11.0,-100.00,SSE,156,9.0,11.0,27,-99.99,,,-99.99,,2013-02-03 09:31:00,
2013-02-03 03:42:00,43.0,10.0,-100.00,SSE,157,8.0,9.0,26,-99.99,,,-99.99,,2013-02-03 09:42:00,
2013-02-03 03:51:00,43.0,9.0,-100.00,SSE,165,8.0,9.0,25,-99.99,,,-99.99,,2013-02-03 09:51:00,
2013-02-03 04:01:00,43.0,11.0,-100.00,SSE,167,7.0,8.0,27,-99.99,,,-99.99,,2013-02-03 10:01:00,
2013-02-03 04:11:00,45.0,13.0,-100.00,South,170,8.0,9.0,27,-99.99,,,-99.99,,2013-02-03 10:11:00,
2013-02-03 04:21:00,43.0,11.0,-100.00,South,172,8.0,10.0,27,-99.99,,,-99.99,,2013-02-03 10:21:00,
2013-02-03 04:31:00,45.0,10.0,-100.00,South,178,8.0,12.0,24,-99.99,,,-99.99,,2013-02-03 10:31:00,
2013-02-03 04:42:00,45.0,12.0,-100.00,South,181,8.0,11.0,26,-99.99,,,-99.99,,2013-02-03 10:42:00,
2013-02-03 04:52:00,45.0,12.0,-100.00,South,185,8.0,10.0,26,-99.99,,,-99.99,,2013-02-03 10:52:00,
2013-02-03 05:02:00,45.0,11.0,-100.00,South,182,8.0,10.0,25,-99.99,,,-99.99,,2013-02-03 11:02:00,
2013-02-03 05:11:00,45.0,9.0,-100.00,South,188,7.0,10.0,23,-99.99,,,-99.99,,2013-02-03 11:11:00,
2013-02-03 05:22:00,45.0,8.0,-100.00,SSW,193,7.0,9.0,22,-99.99,,,-99.99,,2013-02-03 11:22:00,
2013-02-03 05:32:00,46.0,8.0,-100.00,South,189,6.0,6.0,20,-99.99,,,-99.99,,2013-02-03 11:32:00,
2013-02-03 05:42:00,46.0,6.0,-100.00,South,183,6.0,7.0,19,-99.99,,,-99.99,,2013-02-03 11:42:00,
2013-02-03 05:52:00,46.0,6.0,-100.00,South,179,5.0,6.0,19,-99.99,,,-99.99,,2013-02-03 11:52:00,
2013-02-03 06:02:00,46.0,6.0,-100.00,South,188,6.0,8.0,19,-99.99,,,-99.99,,2013-02-03 12:02:00,
2013-02-03 06:11:00,46.0,5.0,-100.00,SSW,192,7.0,8.0,18,-99.99,,,-99.99,,2013-02-03 12:11:00,
2013-02-03 06:22:00,46.0,6.0,-100.00,SSW,197,8.0,9.0,19,-99.99,,,-99.99,,2013-02-03 12:22:00,
2013-02-03 06:32:00,46.0,5.0,-100.00,SSW,210,7.0,9.0,18,-99.99,,,-99.99,,2013-02-03 12:32:00,
2013-02-03 06:42:00,48.0,5.0,-100.00,SW,228,6.0,8.0,17,-99.99,,,-99.99,,2013-02-03 12:42:00,
2013-02-03 06:53:00,48.0,8.0,-100.00,SW,236,6.0,9.0,19,-99.99,,,-99.99,,2013-02-03 12:53:00,
2013-02-03 07:03:00,48.0,8.0,-100.00,SW,226,9.0,11.0,19,-99.99,,,-99.99,,2013-02-03 13:03:00,
2013-02-03 07:11:00,48.0,8.0,-100.00,SW,229,9.0,13.0,19,-99.99,,,-99.99,,2013-02-03 13:11:00,
2013-02-03 07:21:00,48.0,8.0,-100.00,SW,214,8.0,10.0,19,-99.99,,,-99.99,,2013-02-03 13:21:00,
2013-02-03 07:32:00,48.0,8.0,-100.00,SW,215,10.0,13.0,19,-99.99,,,-99.99,,2013-02-03 13:32:00,
2013-02-03 07:42:00,48.0,8.0,-100.00,SSW,208,10.0,13.0,19,-99.99,,,-99.99,,2013-02-03 13:42:00,
2013-02-03 07:52:00,48.0,8.0,-100.00,SSW,206,10.0,12.0,19,-99.99,,,-99.99,,2013-02-03 13:52:00,
2013-02-03 08:02:00,48.0,8.0,-100.00,SSW,205,11.0,12.0,19,-99.99,,,-99.99,,2013-02-03 14:02:00,
2013-02-03 08:11:00,46.0,6.0,-100.00,SSW,202,9.0,12.0,19,-99.99,,,-99.99,,2013-02-03 14:11:00,
2013-02-03 08:21:00,46.0,8.0,-100.00,SSW,199,9.0,10.0,20,-99.99,,,-99.99,,2013-02-03 14:21:00,
2013-02-03 08:32:00,46.0,8.0,-100.00,SSW,200,8.0,11.0,20,-99.99,,,-99.99,,2013-02-03 14:32:00,
2013-02-03 08:42:00,46.0,9.0,-100.00,SSW,197,10.0,12.0,21,-99.99,,,-99.99,,2013-02-03 14:42:00,
2013-02-03 08:52:00,46.0,9.0,-100.00,SSW,201,10.0,12.0,21,-99.99,,,-99.99,,2013-02-03 14:52:00,
2013-02-03 09:03:00,46.0,10.0,-100.00,SSW,198,9.0,11.0,22,-99.99,,,-99.99,,2013-02-03 15:03:00,
2013-02-03 09:11:00,46.0,11.0,-100.00,SSW,202,8.0,10.0,23,-99.99,,,-99.99,,2013-02-03 15:11:00,
2013-02-03 09:22:00,46.0,12.0,-100.00,SSW,202,9.0,13.0,24,-99.99,,,-99.99,,2013-02-03 15:22:00,
2013-02-03 09:33:00,45.0,10.0,-100.00,SSW,201,11.0,14.0,24,-99.99,,,-99.99,,2013-02-03 15:33:00,
2013-02-03 09:42:00,45.0,11.0,-100.00,SSW,196,9.0,13.0,25,-99.99,,,-99.99,,2013-02-03 15:42:00,
2013-02-03 09:51:00,46.0,13.0,-100.00,SSW,195,11.0,15.0,25,-99.99,,,-99.99,,2013-02-03 15:51:00,
2013-02-03 10:02:00,46.0,13.0,-100.00,South,188,9.0,14.0,25,-99.99,,,-99.99,,2013-02-03 16:02:00,
2013-02-03 10:11:00,46.0,13.0,-100.00,South,180,7.0,12.0,26,-99.99,,,-99.99,,2013-02-03 16:11:00,
2013-02-03 10:22:00,46.0,14.0,-100.00,South,182,8.0,12.0,27,-99.99,,,-99.99,,2013-02-03 16:22:00,
2013-02-03 10:32:00,46.0,15.0,-100.00,South,183,9.0,14.0,28,-99.99,,,-99.99,,2013-02-03 16:32:00,
2013-02-03 10:42:00,46.0,14.0,-100.00,South,191,9.0,15.0,27,-99.99,,,-99.99,,2013-02-03 16:42:00,
2013-02-03 10:52:00,46.0,13.0,-100.00,SSW,197,11.0,18.0,26,-99.99,,,-99.99,,2013-02-03 16:52:00,
2013-02-03 11:02:00,48.0,13.0,-100.00,SSW,209,17.0,23.0,24,-99.99,,,-99.99,,2013-02-03 17:02:00,
2013-02-03 11:11:00,48.0,16.0,-100.00,SSW,207,19.0,26.0,27,-99.99,,,-99.99,,2013-02-03 17:11:00,
2013-02-03 11:22:00,48.0,17.0,-100.00,SW,214,17.0,23.0,28,-99.99,,,-99.99,,2013-02-03 17:22:00,
2013-02-03 11:32:00,48.0,17.0,-100.00,SW,215,16.0,25.0,28,-99.99,,,-99.99,,2013-02-03 17:32:00,
2013-02-03 11:42:00,50.0,17.0,-100.00,SSW,196,13.0,19.0,27,-99.99,,,-99.99,,2013-02-03 17:42:00,
2013-02-03 11:52:00,50.0,17.0,-100.00,SSW,201,14.0,23.0,27,-99.99,,,-99.99,,2013-02-03 17:52:00,
2013-02-03 12:03:00,50.0,17.0,-100.00,SSW,207,15.0,21.0,27,-99.99,,,-99.99,,2013-02-03 18:03:00,
2013-02-03 12:12:00,52.0,19.0,-100.00,SSW,200,14.0,22.0,27,-99.99,,,-99.99,,2013-02-03 18:12:00,
2013-02-03 12:23:00,52.0,19.0,-100.00,SSW,198,16.0,23.0,27,-99.99,,,-99.99,,2013-02-03 18:23:00,
2013-02-03 12:32:00,52.0,18.0,-100.00,SSW,201,16.0,25.0,26,-99.99,,,-99.99,,2013-02-03 18:32:00,
2013-02-03 12:42:00,50.0,18.0,-100.00,SSW,200,17.0,26.0,28,-99.99,,,-99.99,,2013-02-03 18:42:00,
2013-02-03 12:51:00,50.0,18.0,-100.00,SSW,211,16.0,23.0,28,-99.99,,,-99.99,,2013-02-03 18:51:00,
2013-02-03 13:02:00,50.0,19.0,-100.00,SSW,206,15.0,23.0,29,-99.99,,,-99.99,,2013-02-03 19:02:00,
2013-02-03 13:11:00,52.0,20.0,-100.00,SSW,198,18.0,27.0,28,-99.99,,,-99.99,,2013-02-03 19:11:00,
2013-02-03 13:22:00,50.0,19.0,-100.00,SSW,196,19.0,27.0,29,-99.99,,,-99.99,,2013-02-03 19:22:00,
2013-02-03 13:32:00,50.0,18.0,-100.00,SSW,197,17.0,25.0,28,-99.99,,,-99.99,,2013-02-03 19:32:00,
2013-02-03 13:42:00,52.0,20.0,-100.00,SSW,192,13.0,22.0,28,-99.99,,,-99.99,,2013-02-03 19:42:00,
2013-02-03 13:51:00,52.0,20.0,-100.00,South,191,15.0,25.0,28,-99.99,,,-99.99,,2013-02-03 19:51:00,
2013-02-03 14:01:00,52.0,20.0,-100.00,South,181,13.0,21.0,28,-99.99,,,-99.99,,2013-02-03 20:01:00,
2013-02-03 14:12:00,52.0,21.0,-100.00,South,186,12.0,20.0,29,-99.99,,,-99.99,,2013-02-03 20:12:00,
2013-02-03 14:21:00,52.0,19.0,-100.00,South,190,13.0,22.0,27,-99.99,,,-99.99,,2013-02-03 20:21:00,
2013-02-03 14:32:00,52.0,18.0,-100.00,South,191,14.0,21.0,26,-99.99,,,-99.99,,2013-02-03 20:32:00,
2013-02-03 14:42:00,52.0,19.0,-100.00,South,182,12.0,22.0,27,-99.99,,,-99.99,,2013-02-03 20:42:00,
2013-02-03 14:52:00,52.0,20.0,-100.00,South,183,12.0,20.0,28,-99.99,,,-99.99,,2013-02-03 20:52:00,
2013-02-03 15:03:00,52.0,21.0,-100.00,South,189,12.0,20.0,29,-99.99,,,-99.99,,2013-02-03 21:03:00,
2013-02-03 15:11:00,52.0,18.0,-100.00,South,189,12.0,19.0,26,-99.99,,,-99.99,,2013-02-03 21:11:00,
2013-02-03 15:21:00,52.0,18.0,-100.00,South,187,11.0,23.0,26,-99.99,,,-99.99,,2013-02-03 21:21:00,
2013-02-03 15:32:00,52.0,18.0,-100.00,SSW,193,15.0,22.0,26,-99.99,,,-99.99,,2013-02-03 21:32:00,
2013-02-03 15:42:00,50.0,17.0,-100.00,SSW,197,15.0,27.0,27,-99.99,,,-99.99,,2013-02-03 21:42:00,
2013-02-03 15:51:00,50.0,18.0,-100.00,SSW,199,17.0,28.0,28,-99.99,,,-99.99,,2013-02-03 21:51:00,
2013-02-03 16:01:00,50.0,18.0,-100.00,SSW,199,14.0,26.0,28,-99.99,,,-99.99,,2013-02-03 22:01:00,
2013-02-03 16:11:00,50.0,17.0,-100.00,SSW,195,17.0,29.0,27,-99.99,,,-99.99,,2013-02-03 22:11:00,
2013-02-03 16:21:00,50.0,17.0,-100.00,SSW,200,16.0,34.0,27,-99.99,,,-99.99,,2013-02-03 22:21:00,
2013-02-03 16:32:00,52.0,19.0,-100.00,SW,214,13.0,25.0,27,-99.99,,,-99.99,,2013-02-03 22:32:00,
2013-02-03 16:41:00,52.0,19.0,-100.00,SSW,200,12.0,23.0,27,-99.99,,,-99.99,,2013-02-03 22:41:00,
2013-02-03 16:51:00,52.0,19.0,-100.00,SSW,208,16.0,26.0,27,-99.99,,,-99.99,,2013-02-03 22:51:00,
2013-02-03 17:01:00,50.0,18.0,-100.00,SSW,209,16.0,21.0,28,-99.99,,,-99.99,,2013-02-03 23:01:00,
2013-02-03 17:12:00,50.0,18.0,-100.00,SW,214,16.0,23.0,28,-99.99,,,-99.99,,2013-02-03 23:12:00,
2013-02-03 17:22:00,50.0,18.0,-100.00,SSW,209,18.0,31.0,28,-99.99,,,-99.99,,2013-02-03 23:22:00,
2013-02-03 17:32:00,50.0,18.0,-100.00,SW,224,20.0,34.0,28,-99.99,,,-99.99,,2013-02-03 23:32:00,
2013-02-03 17:42:00,52.0,19.0,-100.00,SW,226,16.0,27.0,27,-99.99,,,-99.99,,2013-02-03 23:42:00,
2013-02-03 17:52:00,50.0,20.0,-100.00,SW,231,14.0,23.0,30,-99.99,,,-99.99,,2013-02-03 23:52:00,
2013-02-03 18:01:00,50.0,20.0,-100.00,SW,222,12.0,17.0,30,-99.99,,,-99.99,,2013-02-04 00:01:00,
2013-02-03 18:11:00,50.0,20.0,-100.00,SW,215,9.0,15.0,30,-99.99,,,-99.99,,2013-02-04 00:11:00,
2013-02-03 18:22:00,50.0,20.0,-100.00,SW,224,6.0,14.0,30,-99.99,,,-99.99,,2013-02-04 00:22:00,
2013-02-03 18:32:00,50.0,19.0,-100.00,SW,228,11.0,19.0,29,-99.99,,,-99.99,,2013-02-04 00:32:00,
2013-02-03 18:41:00,50.0,20.0,-100.00,SW,219,13.0,18.0,30,-99.99,,,-99.99,,2013-02-04 00:41:00,
2013-02-03 18:51:00,50.0,20.0,-100.00,SW,222,16.0,20.0,30,-99.99,,,-99.99,,2013-02-04 00:51:00,
2013-02-03 19:01:00,50.0,20.0,-100.00,SW,222,16.0,20.0,30,-99.99,,,-99.99,,2013-02-04 01:01:00,
2013-02-03 19:11:00,48.0,20.0,-100.00,SW,230,15.0,22.0,33,-99.99,,,-99.99,,2013-02-04 01:11:00,
2013-02-03 19:21:00,48.0,21.0,-100.00,SW,233,13.0,19.0,34,-99.99,,,-99.99,,2013-02-04 01:21:00,
2013-02-03 19:32:00,48.0,22.0,-100.00,SW,223,14.0,20.0,35,-99.99,,,-99.99,,2013-02-04 01:32:00,
2013-02-03 19:41:00,48.0,22.0,-100.00,SW,215,15.0,20.0,35,-99.99,,,-99.99,,2013-02-04 01:41:00,
2013-02-03 19:52:00,48.0,22.0,-100.00,SW,218,14.0,21.0,35,-99.99,,,-99.99,,2013-02-04 01:52:00,
2013-02-03 20:02:00,48.0,22.0,-100.00,SW,222,11.0,16.0,35,-99.99,,,-99.99,,2013-02-04 02:02:00,
2013-02-03 20:11:00,50.0,21.0,-100.00,WSW,237,13.0,22.0,32,-99.99,,,-99.99,,2013-02-04 02:11:00,
2013-02-03 20:21:00,48.0,20.0,-100.00,SW,233,15.0,25.0,32,-99.99,,,-99.99,,2013-02-04 02:21:00,
2013-02-03 20:31:00,50.0,20.0,-100.00,WSW,237,16.0,24.0,30,-99.99,,,-99.99,,2013-02-04 02:31:00,
2013-02-03 20:41:00,52.0,21.0,-100.00,WSW,250,18.0,30.0,30,-99.99,,,-99.99,,2013-02-04 02:41:00,
2013-02-03 20:52:00,50.0,19.0,-100.00,WSW,254,17.0,22.0,29,-99.99,,,-99.99,,2013-02-04 02:52:00,
2013-02-03 21:02:00,50.0,19.0,-100.00,WSW,254,17.0,22.0,29,-99.99,,,-99.99,,2013-02-04 03:02:00,
2013-02-03 21:11:00,50.0,19.0,-100.00,WSW,252,17.0,25.0,29,-99.99,,,-99.99,,2013-02-04 03:11:00,
2013-02-03 21:21:00,52.0,20.0,-100.00,WSW,249,16.0,25.0,28,-99.99,,,-99.99,,2013-02-04 03:21:00,
2013-02-03 21:32:00,50.0,20.0,-100.00,WSW,239,15.0,22.0,30,-99.99,,,-99.99,,2013-02-04 03:32:00,
2013-02-03 21:42:00,50.0,20.0,-100.00,WSW,256,14.0,20.0,30,-99.99,,,-99.99,,2013-02-04 03:42:00,
2013-02-03 21:51:00,50.0,20.0,-100.00,WSW,256,14.0,21.0,30,-99.99,,,-99.99,,2013-02-04 03:51:00,
2013-02-03 22:01:00,50.0,19.0,-100.00,West,260,14.0,22.0,29,-99.99,,,-99.99,,2013-02-04 04:01:00,
2013-02-03 22:11:00,52.0,18.0,-100.00,West,272,14.0,26.0,26,-99.99,,,-99.99,,2013-02-04 04:11:00,
2013-02-03 22:21:00,52.0,18.0,-100.00,West,268,15.0,21.0,26,-99.99,,,-99.99,,2013-02-04 04:21:00,
2013-02-03 22:32:00,52.0,18.0,-100.00,West,266,14.0,22.0,26,-99.99,,,-99.99,,2013-02-04 04:32:00,
2013-02-03 22:41:00,52.0,18.0,-100.00,West,269,16.0,21.0,26,-99.99,,,-99.99,,2013-02-04 04:41:00,
2013-02-03 22:52:00,52.0,17.0,-100.00,West,273,13.0,19.0,25,-99.99,,,-99.99,,2013-02-04 04:52:00,
2013-02-03 23:03:00,52.0,17.0,-100.00,West,275,13.0,17.0,25,-99.99,,,-99.99,,2013-02-04 05:03:00,
2013-02-03 23:11:00,52.0,17.0,-100.00,West,275,14.0,19.0,25,-99.99,,,-99.99,,2013-02-04 05:11:00,
2013-02-03 23:22:00,52.0,17.0,-100.00,WNW,284,13.0,20.0,25,-99.99,,,-99.99,,2013-02-04 05:22:00,
2013-02-03 23:33:00,52.0,15.0,-100.00,WNW,289,16.0,26.0,23,-99.99,,,-99.99,,2013-02-04 05:33:00,
2013-02-03 23:42:00,52.0,16.0,-100.00,WNW,290,18.0,26.0,24,-99.99,,,-99.99,,2013-02-04 05:42:00,
2013-02-03 23:52:00,52.0,17.0,-100.00,WNW,288,17.0,28.0,25,-99.99,,,-99.99,,2013-02-04 05:52:00,